Theta_e
349 349 350 350 350 350 350 350 350 350 348 346 343 342 343 345 347 344 340 340 340 340 340 340 338 339 336 338 338 337 335 333 335
348 347 347 349 349 349 349 348 349 350 349 349 346 343 344 344 345 342 340 340 342 341 341 340 338 335 337 335 333 334 333 333 333
345 345 345 346 348 348 348 348 348 350 349 349 349 347 346 342 340 341 340 341 343 343 343 341 339 337 337 334 334 334 332 332 333
333 335 338 340 343 344 345 346 348 348 349 349 349 350 348 341 340 338 339 341 344 345 344 342 341 339 338 336 336 336 334 333 332
325 328 331 333 335 336 338 341 343 345 347 348 348 348 347 344 341 338 339 340 343 345 345 343 342 341 339 338 337 335 335 333 335
317 319 323 326 328 328 330 332 335 338 340 342 346 345 343 345 343 338 340 341 344 345 345 345 344 342 341 339 338 337 335 335 336
312 313 316 317 320 320 322 324 327 329 333 337 341 345 345 340 341 341 340 341 345 346 346 345 344 344 342 340 339 337 336 336 336
309 309 309 311 313 312 313 316 319 320 324 331 335 340 341 346 342 341 342 342 343 346 347 346 345 344 343 341 341 339 337 336 337
308 307 309 309 310 310 310 311 313 315 318 324 328 331 335 341 340 340 343 344 344 345 347 347 345 344 344 342 341 339 338 337 337
307 307 308 308 309 308 308 308 309 310 314 316 320 325 330 335 343 342 341 343 345 344 345 347 346 345 345 343 342 340 339 338 338
307 306 307 306 308 309 308 307 307 308 309 311 315 318 322 328 335 342 343 341 343 344 345 346 347 347 346 344 343 341 340 338 337
306 306 306 307 308 309 308 307 308 307 307 307 309 312 316 320 327 336 340 341 340 341 345 347 346 346 346 345 344 343 340 338 337
306 306 306 307 307 308 307 307 305 305 305 304 305 308 313 317 322 329 335 336 337 339 341 345 347 347 346 346 345 344 340 338 337
306 305 306 306 306 306 306 305 306 304 304 303 303 306 308 312 314 319 326 334 336 336 339 341 342 345 347 346 345 344 342 340 337
305 305 305 305 305 305 306 305 305 305 304 302 302 306 311 315 317 318 322 329 334 335 335 341 342 341 345 346 346 346 344 341 338
304 304 304 304 304 304 305 304 303 303 305 303 301 302 304 306 312 318 321 325 329 334 334 336 341 342 341 343 346 347 346 342 339
302 303 303 303 302 302 302 302 301 303 305 300 299 295 300 308 316 319 322 324 327 328 332 334 338 341 342 341 340 341 346 343 340
302 302 302 301 301 300 300 301 301 299 302 304 299 294 292 300 307 312 321 324 325 328 331 332 334 338 340 339 337 336 340 342 343
300 301 300 300 300 299 300 301 302 302 300 303 302 302 300 295 296 306 308 311 318 324 328 331 333 335 339 336 334 335 336 337 341
298 299 299 299 299 299 300 301 302 302 301 301 301 300 300 300 297 295 301 309 313 316 316 328 331 334 335 333 333 333 333 335 336
Wind_Speed
9 9 10 11 10 9 11 11 10 10 9 9 8 8 7 5 5 6 6 6 3 6 5 3 5 5 4 3 4 5 4 2 5
13 8 6 9 11 12 11 12 12 12 12 12 11 10 9 7 7 6 6 6 8 7 7 7 6 3 4 4 3 2 3 1 4
16 16 16 15 14 11 10 13 14 14 15 15 14 13 11 9 8 8 7 9 10 9 9 9 8 7 7 5 5 4 2 2 3
17 18 17 15 15 16 14 12 12 15 17 17 17 14 12 11 8 9 7 12 13 13 11 12 11 11 10 8 7 6 6 6 5
18 18 18 17 17 16 16 17 15 15 14 17 19 16 14 13 10 9 8 14 16 15 15 13 14 13 12 11 10 9 9 5 6
12 14 17 18 18 18 18 18 17 16 13 15 12 14 6 10 9 8 12 17 18 18 16 16 16 16 15 13 13 11 9 8 8
10 12 16 16 17 16 17 18 16 14 9 7 10 5 9 10 8 8 16 20 21 21 20 18 18 18 17 16 15 13 12 10 9
6 6 7 8 12 8 10 10 8 12 9 9 9 9 7 7 8 13 21 23 23 23 23 19 20 20 19 18 17 16 15 14 12
5 4 5 6 6 9 8 6 9 10 11 11 11 11 10 5 5 10 17 21 23 23 24 22 22 21 21 20 19 18 17 16 15
4 4 4 4 4 6 8 8 9 9 10 10 11 12 13 13 6 6 17 24 25 25 25 25 24 24 23 22 21 20 19 18 16
5 5 4 5 4 4 5 7 7 8 9 10 11 12 12 14 14 8 10 20 22 23 27 26 27 26 25 24 23 21 21 20 18
6 5 5 4 4 5 5 6 6 7 9 11 10 11 12 12 14 10 7 11 19 22 29 28 27 28 28 26 24 22 22 21 21
8 6 7 5 5 4 4 5 6 6 7 10 11 10 11 14 15 13 11 8 9 15 28 28 28 28 29 29 26 24 24 23 22
8 8 8 8 6 5 5 6 5 6 7 9 10 11 12 13 13 17 16 15 11 10 16 23 27 29 29 30 29 27 26 25 23
10 8 10 8 8 8 7 8 7 7 7 8 11 10 11 11 12 14 14 14 15 12 14 12 14 28 29 29 31 28 28 27 25
9 8 9 8 8 9 9 8 10 9 6 7 9 9 14 16 14 13 13 15 14 14 13 11 9 12 29 29 30 32 33 31 28
9 10 9 9 8 10 10 9 7 8 6 6 8 9 9 10 10 12 12 16 10 13 13 14 16 13 11 19 29 30 33 31 27
10 11 10 9 8 9 11 10 11 10 9 9 5 6 6 11 8 12 10 13 10 11 12 13 15 17 13 14 19 28 25 26 31
13 12 12 11 9 12 11 10 10 9 10 7 7 10 9 6 9 8 9 10 8 11 10 10 11 14 11 14 14 20 25 24 31
15 13 14 13 9 12 13 12 11 9 10 9 7 8 7 11 10 12 11 7 8 5 8 10 9 13 9 7 11 16 20 18 18
Wind_Direction
337 325 314 307 299 276 272 254 240 242 237 236 235 232 240 266 191 194 204 222 228 200 166 162 175 153 138 118 98 117 93 80 103
22 17 353 346 318 302 283 265 262 256 247 240 235 230 222 224 208 214 215 221 238 212 193 195 200 187 192 180 155 113 103 62 68
25 21 20 14 8 352 320 301 282 266 257 247 236 233 217 208 221 222 218 220 227 214 207 213 212 206 218 191 216 192 174 173 131
24 20 19 18 10 2 355 353 336 285 268 261 249 233 218 228 223 221 222 219 222 225 215 215 218 217 214 209 214 191 202 208 171
22 16 16 12 17 9 2 353 344 341 317 274 258 247 233 230 231 227 223 216 221 227 227 214 217 223 222 209 214 214 216 215 173
18 15 16 11 11 7 3 358 353 346 336 331 294 247 241 242 239 235 225 220 222 228 228 221 218 220 220 215 216 216 213 210 178
14 12 12 10 7 1 359 356 354 350 340 326 320 285 237 227 221 241 225 223 224 226 227 218 221 220 221 221 216 215 212 213 193
17 10 7 2 5 0 353 351 353 342 338 331 320 308 296 253 224 223 224 222 230 228 227 223 218 222 221 222 215 214 212 212 205
7 15 9 7 1 354 352 344 338 334 330 325 317 306 300 279 245 232 231 232 229 232 233 226 223 219 225 223 217 218 213 211 210
340 352 354 359 354 356 345 341 338 330 326 321 314 310 304 292 271 236 231 231 230 227 231 234 228 225 222 222 220 217 215 213 211
314 325 334 335 344 341 335 336 333 326 321 314 311 305 302 299 288 261 231 232 238 238 238 231 228 229 223 221 220 219 216 216 212
295 295 301 308 316 316 320 322 322 323 322 316 310 301 297 295 289 281 256 248 247 241 242 234 229 229 227 221 221 217 217 216 213
282 281 279 284 277 271 283 290 306 312 317 317 313 304 294 288 285 280 273 247 247 235 238 233 229 226 229 224 218 216 216 217 214
274 274 281 282 278 277 275 282 284 301 310 307 308 300 291 284 278 276 269 264 244 245 240 237 231 225 223 228 221 215 214 214 216
290 288 289 287 276 278 280 285 284 280 288 299 301 291 288 282 271 264 263 257 252 239 243 236 233 225 222 223 226 217 214 209 213
272 271 274 273 270 272 274 283 284 281 271 295 298 290 282 268 261 256 250 253 253 243 235 238 237 220 219 218 223 221 214 205 204
246 246 248 252 260 264 264 260 266 262 257 279 294 299 308 265 278 256 245 241 241 245 232 231 231 224 216 219 220 221 231 209 205
265 267 266 273 272 272 272 270 260 270 261 241 256 290 293 328 290 321 278 258 238 238 235 228 230 228 221 221 223 224 228 201 209
274 263 263 262 268 267 265 263 253 253 259 241 238 247 271 287 305 297 303 296 290 275 233 229 227 226 225 217 219 217 208 221 218
275 269 267 262 257 257 254 255 241 237 245 246 245 243 257 263 263 276 283 298 291 253 290 234 220 221 214 207 202 209 209 207 212